Flag for United Kingdom Weather past 2 weeks in Dundee, Scotland, United Kingdom

Now
36 °F

Scattered showers. Passing clouds.


Feels Like: 26 °F
Forecast: N/A
Wind: 16 mph from West

Location: Dundee / Riverside

Current Time: Jan 28, 2015 at 4:22:30 PM

Latest Report: Jan 28, 2015 at 3:50 PM


Visibility: N/A

Pressure: 29.12 "Hg

Humidity: 87%

Dew point: 32 °F

Location of DundeeLocation

Historic Weather in Dundee — Graph

°F

Dundee temperature yesterday

Maximum temperature yesterday: 50 °F (at 4:50 PM)
Minimum temperature yesterday: 37 °F (at 9:20 AM)
Average temperature yesterday: 44 °F

Past Weeks' High & Low Weather Summary

 TemperatureHumidityPressure
High50 °F (Jan 25, 5:20 PM)100% (Jan 14, 10:20 AM)30.18 "Hg (Jan 14, 10:20 AM)
Low27 °F (Jan 19, 5:50 PM)56% (Jan 18, 12:20 PM)28.41 "Hg (Jan 15, 1:20 PM)
Average38 °F87%29.67 "Hg
* Reported Jan 13 3:20 PM — Jan 28 3:20 PM, Dundee, Weather by CustomWeather, © 2014

Note: Actual official high and low records may vary slightly from our data, if they occured in-between our weather recording intervals... More about our weather records

Advertising

Dundee weather history for previous 24 hours

 ConditionsComfort  
Time TempWeatherWind HumidityBarometerVisibility
3:20 PM
Jan 28
37 °FScattered showers. Passing clouds.17 mph87%29.12 "Hg4 mi
2:50 PM39 °FSnow. Scattered clouds.26 mph87%29.15 "Hg4 mi
2:20 PM37 °FScattered showers. Scattered clouds.18 mph87%29.12 "HgN/A
1:50 PM37 °FScattered showers. Scattered clouds.17 mph93%29.12 "HgN/A
1:20 PM37 °FScattered showers. Scattered clouds.23 mph87%29.12 "HgN/A
12:20 PM37 °FPartly sunny.23 mph93%29.12 "HgN/A
11:50 AM39 °FPartly sunny.29 mph81%29.12 "HgN/A
11:20 AM39 °FScattered clouds.22 mph87%29.12 "HgN/A
10:50 AM37 °FScattered clouds.20 mph81%29.12 "HgN/A
10:20 AM37 °FScattered clouds.21 mph87%29.12 "HgN/A
9:50 AM39 °FRain. Partly sunny.25 mph87%29.12 "HgN/A
9:20 AM39 °FScattered clouds.20 mph87%29.12 "HgN/A
8:50 AM41 °FScattered clouds.15 mph93%29.12 "HgN/A
8:20 AM41 °FLight rain. Scattered clouds.21 mph81%29.12 "HgN/A
7:50 AM39 °FPassing clouds.20 mph93%29.15 "HgN/A
7:20 AM41 °FPassing clouds.17 mph93%29.15 "HgN/A
6:50 AM41 °FPassing clouds.18 mph93%29.15 "HgN/A
6:20 AM45 °FRain. Passing clouds.23 mph87%29.15 "Hg5 mi
8:20 PM
Jan 27
43 °FPartly cloudy.20 mph93%29.80 "HgN/A
7:50 PM43 °FPartly cloudy.14 mph87%29.83 "HgN/A
7:20 PM45 °FPartly cloudy.16 mph87%29.86 "HgN/A
6:50 PM45 °FPartly cloudy.21 mph93%29.86 "HgN/A
6:20 PM43 °FPassing clouds.20 mph93%29.89 "HgN/A
5:50 PM45 °FPassing clouds.20 mph87%29.92 "HgN/A
5:20 PM45 °FPassing clouds.14 mph87%29.92 "HgN/A
4:50 PM50 °FPassing clouds.15 mph88%29.95 "HgN/A
4:20 PM45 °FScattered clouds.14 mph93%29.95 "HgN/A
Weather by CustomWeather, © 2014

See weather overviewHow to use our weather pages